GLO1750 SBBR-SBVT

Flight info

Callsign GLO1750
Flight time 1h 24m
Altitude 37000
Route SAVPU UZ32 SATBU
Aircraft B38M/M-DFGHIJ4J7KLORWXY/LB1

Departure

Time 2026-05-06 19:16
Airport Presidente Juscelino Kubitschek International Airport (SBBR)

Arrival

Time 2026-05-06 20:41
Airport Eurico de Aguiar Salles International Airport (SBVT)
Time Latitude Longitude Altitude Speed Heading
2026-05-06 18:46 -15.86728 -47.92022 3473 ft 0 kts 197°
2026-05-06 19:02 -15.86724 -47.92021 3474 ft 2 kts 197°
2026-05-06 19:02 -15.86708 -47.92015 3474 ft 2 kts 198°
2026-05-06 19:02 -15.86693 -47.92010 3471 ft 2 kts 198°
2026-05-06 19:02 -15.86677 -47.92005 3471 ft 2 kts 199°
2026-05-06 19:03 -15.86662 -47.91999 3471 ft 2 kts 200°
2026-05-06 19:03 -15.86646 -47.91993 3472 ft 2 kts 202°
2026-05-06 19:03 -15.86632 -47.91986 3472 ft 2 kts 213°
2026-05-06 19:03 -15.86623 -47.91974 3471 ft 1 kts 268°
2026-05-06 19:04 -15.86623 -47.91972 3471 ft 0 kts 270°
2026-05-06 19:06 -15.86623 -47.91973 3471 ft 0 kts 270°
2026-05-06 19:06 -15.86623 -47.91982 3472 ft 4 kts 269°
2026-05-06 19:07 -15.86630 -47.92047 3473 ft 14 kts 262°
2026-05-06 19:07 -15.86627 -47.92172 3474 ft 20 kts 279°
2026-05-06 19:07 -15.86562 -47.92304 3472 ft 21 kts 298°
2026-05-06 19:07 -15.86531 -47.92406 3471 ft 16 kts 281°
2026-05-06 19:08 -15.86532 -47.92526 3469 ft 18 kts 265°
2026-05-06 19:08 -15.86543 -47.92659 3466 ft 20 kts 269°
2026-05-06 19:08 -15.86521 -47.92767 3464 ft 15 kts 328°
2026-05-06 19:08 -15.86484 -47.92767 3462 ft 5 kts
2026-05-06 19:09 -15.86476 -47.92767 3463 ft 0 kts 355°
2026-05-06 19:14 -15.86470 -47.92768 3463 ft 0 kts 355°
2026-05-06 19:14 -15.86459 -47.92769 3463 ft 3 kts 358°
2026-05-06 19:15 -15.86414 -47.92759 3463 ft 11 kts 21°
2026-05-06 19:15 -15.86358 -47.92710 3463 ft 2 kts 90°
2026-05-06 19:15 -15.86358 -47.92700 3463 ft 0 kts 90°
2026-05-06 19:15 -15.86355 -47.92644 3463 ft 34 kts 87°
2026-05-06 19:16 -15.86321 -47.92139 3467 ft 104 kts 85°
2026-05-06 19:16 -15.86260 -47.91180 3471 ft 160 kts 88°
2026-05-06 19:16 -15.86202 -47.89958 3985 ft 175 kts 84°
2026-05-06 19:16 -15.86099 -47.88683 4778 ft 180 kts 86°
2026-05-06 19:17 -15.86007 -47.87309 5286 ft 202 kts 86°
2026-05-06 19:17 -15.85904 -47.85742 5762 ft 231 kts 86°
2026-05-06 19:17 -15.85791 -47.83995 6406 ft 251 kts 85°
2026-05-06 19:17 -15.85669 -47.82118 7058 ft 268 kts 86°
2026-05-06 19:18 -15.85545 -47.80189 7968 ft 268 kts 86°
2026-05-06 19:18 -15.85418 -47.78242 8946 ft 272 kts 86°
2026-05-06 19:18 -15.85290 -47.76261 9878 ft 277 kts 86°
2026-05-06 19:18 -15.85159 -47.74229 10533 ft 291 kts 86°
2026-05-06 19:19 -15.85065 -47.72068 11058 ft 306 kts 90°
2026-05-06 19:19 -15.85099 -47.69821 11721 ft 315 kts 90°
2026-05-06 19:19 -15.85284 -47.67567 12519 ft 321 kts 104°
2026-05-06 19:19 -15.86240 -47.65483 13361 ft 324 kts 124°
2026-05-06 19:20 -15.87500 -47.63535 14193 ft 326 kts 118°
2026-05-06 19:20 -15.88627 -47.61457 14828 ft 334 kts 119°
2026-05-06 19:20 -15.89792 -47.59365 15600 ft 335 kts 120°
2026-05-06 19:20 -15.90979 -47.57260 16289 ft 340 kts 120°
2026-05-06 19:21 -15.92185 -47.55139 17028 ft 342 kts 121°
2026-05-06 19:21 -15.93406 -47.53001 17725 ft 345 kts 121°
2026-05-06 19:21 -15.94638 -47.50849 18394 ft 350 kts 121°
2026-05-06 19:21 -15.95889 -47.48664 18962 ft 352 kts 121°
2026-05-06 19:22 -15.96721 -47.47210 19310 ft 356 kts 121°
2026-05-06 19:22 -15.97989 -47.44993 19901 ft 358 kts 122°
2026-05-06 19:22 -15.99264 -47.42763 20442 ft 362 kts 122°
2026-05-06 19:22 -16.00981 -47.39761 21167 ft 366 kts 122°
2026-05-06 19:23 -16.02287 -47.37476 21729 ft 369 kts 122°
2026-05-06 19:23 -16.03174 -47.35924 22099 ft 371 kts 123°
2026-05-06 19:23 -16.04500 -47.33603 22637 ft 374 kts 123°
2026-05-06 19:23 -16.05820 -47.31291 23162 ft 378 kts 123°
2026-05-06 19:24 -16.07171 -47.28924 23685 ft 381 kts 123°
2026-05-06 19:24 -16.08456 -47.26670 24083 ft 384 kts 124°
2026-05-06 19:24 -16.09872 -47.24191 24569 ft 387 kts 124°
2026-05-06 19:24 -16.11235 -47.21803 25031 ft 389 kts 124°
2026-05-06 19:25 -16.12624 -47.19367 25457 ft 392 kts 124°
2026-05-06 19:25 -16.14009 -47.16936 25902 ft 395 kts 125°
2026-05-06 19:25 -16.15414 -47.14470 26334 ft 398 kts 125°
2026-05-06 19:25 -16.16831 -47.11984 26765 ft 400 kts 125°
2026-05-06 19:26 -16.18226 -47.09533 27180 ft 403 kts 126°
2026-05-06 19:26 -16.19658 -47.07017 27597 ft 405 kts 126°
2026-05-06 19:26 -16.21099 -47.04485 28004 ft 408 kts 126°
2026-05-06 19:26 -16.22548 -47.01938 28411 ft 410 kts 126°
2026-05-06 19:27 -16.23993 -46.99396 28818 ft 413 kts 126°
2026-05-06 19:27 -16.25444 -46.96845 29205 ft 415 kts 126°
2026-05-06 19:27 -16.26876 -46.94325 29609 ft 417 kts 127°
2026-05-06 19:27 -16.28356 -46.91719 29999 ft 420 kts 127°
2026-05-06 19:28 -16.29850 -46.89088 30334 ft 422 kts 127°
2026-05-06 19:28 -16.31348 -46.86448 30662 ft 424 kts 127°
2026-05-06 19:28 -16.32854 -46.83795 30998 ft 426 kts 127°
2026-05-06 19:28 -16.34386 -46.81094 31329 ft 428 kts 127°
2026-05-06 19:29 -16.35901 -46.78423 31661 ft 430 kts 127°
2026-05-06 19:29 -16.37407 -46.75766 31974 ft 432 kts 127°
2026-05-06 19:29 -16.38941 -46.73058 32293 ft 434 kts 127°
2026-05-06 19:29 -16.40478 -46.70345 32598 ft 436 kts 127°
2026-05-06 19:30 -16.42022 -46.67618 32913 ft 438 kts 127°
2026-05-06 19:30 -16.43574 -46.64876 33226 ft 440 kts 127°
2026-05-06 19:30 -16.45130 -46.62126 33538 ft 442 kts 127°
2026-05-06 19:30 -16.46736 -46.59396 33879 ft 441 kts 129°
2026-05-06 19:31 -16.48373 -46.56698 34240 ft 441 kts 129°
2026-05-06 19:31 -16.49999 -46.54002 34577 ft 440 kts 129°
2026-05-06 19:31 -16.53239 -46.48617 35132 ft 443 kts 129°
2026-05-06 19:32 -16.54875 -46.45895 35403 ft 443 kts 129°
2026-05-06 19:32 -16.56514 -46.43167 35653 ft 445 kts 129°
2026-05-06 19:32 -16.58158 -46.40430 35909 ft 445 kts 129°
2026-05-06 19:32 -16.59804 -46.37687 36189 ft 446 kts 129°
2026-05-06 19:33 -16.61454 -46.34938 36437 ft 447 kts 129°
2026-05-06 19:33 -16.63104 -46.32187 36688 ft 448 kts 129°
2026-05-06 19:33 -16.64756 -46.29433 36934 ft 448 kts 129°
2026-05-06 19:33 -16.66414 -46.26667 37071 ft 450 kts 129°
2026-05-06 19:34 -16.69721 -46.21145 37048 ft 447 kts 129°
2026-05-06 19:34 -16.73025 -46.15626 37053 ft 448 kts 129°
2026-05-06 19:35 -16.76320 -46.10117 37051 ft 447 kts 129°
2026-05-06 19:35 -16.79590 -46.04645 37053 ft 447 kts 129°
2026-05-06 19:36 -16.82879 -45.99136 37060 ft 447 kts 129°
2026-05-06 19:36 -16.86160 -45.93638 37056 ft 446 kts 130°
2026-05-06 19:37 -16.89441 -45.88134 37057 ft 446 kts 130°
2026-05-06 19:37 -16.92712 -45.82644 37053 ft 446 kts 130°
2026-05-06 19:38 -16.96015 -45.77095 37063 ft 452 kts 129°
2026-05-06 19:38 -16.99335 -45.71514 37058 ft 451 kts 130°
2026-05-06 19:39 -17.02643 -45.65946 37056 ft 450 kts 130°
2026-05-06 19:39 -17.05927 -45.60418 37040 ft 450 kts 130°
2026-05-06 19:40 -17.09231 -45.54852 37053 ft 450 kts 130°
2026-05-06 19:40 -17.12530 -45.49290 37051 ft 450 kts 130°
2026-05-06 19:41 -17.15826 -45.43731 37056 ft 450 kts 130°
2026-05-06 19:41 -17.19121 -45.38169 37051 ft 449 kts 130°
2026-05-06 19:42 -17.22383 -45.32657 37051 ft 448 kts 130°
2026-05-06 19:42 -17.25666 -45.27105 37046 ft 448 kts 130°
2026-05-06 19:43 -17.28947 -45.21552 37058 ft 449 kts 130°
2026-05-06 19:43 -17.32229 -45.15994 37059 ft 448 kts 130°
2026-05-06 19:44 -17.35498 -45.10451 37064 ft 447 kts 130°
2026-05-06 19:44 -17.38766 -45.04908 37049 ft 447 kts 130°
2026-05-06 19:45 -17.41823 -44.99251 37058 ft 450 kts 127°
2026-05-06 19:45 -17.44838 -44.93501 37057 ft 450 kts 127°
2026-05-06 19:46 -17.47859 -44.87758 37058 ft 450 kts 127°
2026-05-06 19:46 -17.50885 -44.82001 37048 ft 450 kts 127°
2026-05-06 19:47 -17.53901 -44.76261 37056 ft 449 kts 127°
2026-05-06 19:47 -17.56885 -44.70575 37059 ft 448 kts 127°
2026-05-06 19:48 -17.59893 -44.64839 37060 ft 448 kts 127°
2026-05-06 19:48 -17.62900 -44.59099 37073 ft 448 kts 127°
2026-05-06 19:49 -17.65892 -44.53375 37071 ft 448 kts 127°
2026-05-06 19:49 -17.68875 -44.47647 37066 ft 447 kts 127°
2026-05-06 19:50 -17.71853 -44.41923 37098 ft 447 kts 127°
2026-05-06 19:50 -17.74828 -44.36202 37074 ft 446 kts 127°
2026-05-06 19:51 -17.77794 -44.30490 37082 ft 446 kts 127°
2026-05-06 19:51 -17.80760 -44.24774 37087 ft 446 kts 127°
2026-05-06 19:52 -17.83704 -44.19096 37101 ft 445 kts 127°
2026-05-06 19:52 -17.86662 -44.13386 37091 ft 444 kts 127°
2026-05-06 19:53 -17.89613 -44.07686 37101 ft 445 kts 127°
2026-05-06 19:53 -17.92561 -44.01983 37114 ft 444 kts 127°
2026-05-06 19:54 -17.95509 -43.96282 37115 ft 445 kts 127°
2026-05-06 19:54 -17.98466 -43.90548 37113 ft 444 kts 127°
2026-05-06 19:55 -18.01388 -43.84881 37121 ft 444 kts 127°
2026-05-06 19:55 -18.04327 -43.79178 37126 ft 443 kts 127°
2026-05-06 19:56 -18.07261 -43.73480 37115 ft 442 kts 127°
2026-05-06 19:56 -18.10192 -43.67787 37135 ft 443 kts 127°
2026-05-06 19:57 -18.13161 -43.62123 37136 ft 442 kts 127°
2026-05-06 19:57 -18.16136 -43.56438 37135 ft 444 kts 127°
2026-05-06 19:58 -18.19108 -43.50752 37124 ft 444 kts 127°
2026-05-06 19:58 -18.22061 -43.45096 37148 ft 444 kts 127°
2026-05-06 19:59 -18.25031 -43.39410 37124 ft 444 kts 127°
2026-05-06 19:59 -18.28009 -43.33702 37125 ft 445 kts 127°
2026-05-06 20:00 -18.30983 -43.27999 37130 ft 444 kts 127°
2026-05-06 20:00 -18.33964 -43.22277 37137 ft 445 kts 127°
2026-05-06 20:01 -18.36936 -43.16567 37130 ft 445 kts 127°
2026-05-06 20:01 -18.39953 -43.10906 37127 ft 443 kts 128°
2026-05-06 20:02 -18.43012 -43.05261 37128 ft 444 kts 128°
2026-05-06 20:02 -18.46047 -42.99646 37111 ft 444 kts 127°
2026-05-06 20:03 -18.49105 -42.93982 37136 ft 444 kts 127°
2026-05-06 20:03 -18.52154 -42.88329 37143 ft 444 kts 127°
2026-05-06 20:04 -18.55221 -42.82668 37137 ft 444 kts 127°
2026-05-06 20:04 -18.58271 -42.77070 37128 ft 443 kts 127°
2026-05-06 20:05 -18.61344 -42.71424 37138 ft 444 kts 127°
2026-05-06 20:05 -18.64410 -42.65782 37133 ft 443 kts 127°
2026-05-06 20:06 -18.67482 -42.60126 37134 ft 444 kts 127°
2026-05-06 20:06 -18.70557 -42.54471 37138 ft 444 kts 127°
2026-05-06 20:07 -18.73626 -42.48822 37130 ft 443 kts 127°
2026-05-06 20:07 -18.76652 -42.43159 37133 ft 444 kts 126°
2026-05-06 20:08 -18.79140 -42.38415 37137 ft 445 kts 126°
2026-05-06 20:08 -18.82625 -42.31779 37129 ft 445 kts 126°
2026-05-06 20:09 -18.85123 -42.27017 37119 ft 445 kts 126°
2026-05-06 20:09 -18.88119 -42.21303 37117 ft 445 kts 126°
2026-05-06 20:10 -18.91111 -42.15572 37119 ft 445 kts 125°
2026-05-06 20:10 -18.94103 -42.09832 37114 ft 446 kts 125°
2026-05-06 20:11 -18.97094 -42.04088 37118 ft 446 kts 125°
2026-05-06 20:11 -19.00085 -41.98339 37123 ft 446 kts 124°
2026-05-06 20:12 -19.03072 -41.92586 37115 ft 447 kts 124°
2026-05-06 20:12 -19.06055 -41.86830 37120 ft 446 kts 125°
2026-05-06 20:13 -19.09016 -41.81109 37126 ft 447 kts 124°
2026-05-06 20:13 -19.12017 -41.75304 37129 ft 447 kts 124°
2026-05-06 20:14 -19.15001 -41.69538 37022 ft 444 kts 124°
2026-05-06 20:14 -19.16466 -41.66711 36368 ft 443 kts 124°
2026-05-06 20:14 -19.17951 -41.63841 35506 ft 448 kts 123°
2026-05-06 20:15 -19.19453 -41.60938 34746 ft 451 kts 123°
2026-05-06 20:15 -19.20959 -41.58025 34002 ft 453 kts 123°
2026-05-06 20:15 -19.22474 -41.55097 33260 ft 452 kts 122°
2026-05-06 20:15 -19.23980 -41.52182 32691 ft 449 kts 122°
2026-05-06 20:16 -19.25470 -41.49297 32189 ft 444 kts 122°
2026-05-06 20:16 -19.26947 -41.46437 31643 ft 440 kts 121°
2026-05-06 20:16 -19.28412 -41.43597 31083 ft 438 kts 121°
2026-05-06 20:16 -19.29865 -41.40778 30547 ft 436 kts 121°
2026-05-06 20:17 -19.31314 -41.37967 29934 ft 434 kts 121°
2026-05-06 20:17 -19.32759 -41.35163 29293 ft 432 kts 121°
2026-05-06 20:17 -19.34174 -41.32415 28766 ft 428 kts 121°
2026-05-06 20:17 -19.35593 -41.29660 28237 ft 425 kts 121°
2026-05-06 20:18 -19.36996 -41.26936 27701 ft 421 kts 121°
2026-05-06 20:18 -19.38396 -41.24220 27111 ft 420 kts 121°
2026-05-06 20:18 -19.39790 -41.21515 26593 ft 417 kts 120°
2026-05-06 20:18 -19.41178 -41.18820 26080 ft 414 kts 120°
2026-05-06 20:19 -19.42553 -41.16149 25549 ft 412 kts 120°
2026-05-06 20:19 -19.43925 -41.13476 24979 ft 412 kts 120°
2026-05-06 20:19 -19.45289 -41.10816 24481 ft 410 kts 120°
2026-05-06 20:19 -19.46651 -41.08162 24007 ft 408 kts 120°
2026-05-06 20:20 -19.47998 -41.05533 23478 ft 407 kts 120°
2026-05-06 20:20 -19.49345 -41.02905 22942 ft 404 kts 120°
2026-05-06 20:20 -19.50680 -41.00297 22442 ft 401 kts 120°
2026-05-06 20:20 -19.52003 -40.97715 21986 ft 397 kts 120°
2026-05-06 20:21 -19.53315 -40.95148 21523 ft 394 kts 120°
2026-05-06 20:21 -19.54613 -40.92611 21078 ft 390 kts 120°
2026-05-06 20:21 -19.55887 -40.90119 20640 ft 387 kts 120°
2026-05-06 20:21 -19.57166 -40.87621 20209 ft 384 kts 120°
2026-05-06 20:22 -19.58746 -40.85362 19797 ft 380 kts 132°
2026-05-06 20:22 -19.60475 -40.83271 19533 ft 373 kts 131°
2026-05-06 20:22 -19.62159 -40.81204 19230 ft 368 kts 131°
2026-05-06 20:22 -19.63829 -40.79161 18910 ft 366 kts 131°
2026-05-06 20:23 -19.65494 -40.77126 18587 ft 366 kts 130°
2026-05-06 20:23 -19.67159 -40.75090 18229 ft 365 kts 130°
2026-05-06 20:23 -19.68823 -40.73056 17871 ft 363 kts 130°
2026-05-06 20:23 -19.70480 -40.71030 17528 ft 363 kts 130°
2026-05-06 20:24 -19.72130 -40.69010 17192 ft 361 kts 130°
2026-05-06 20:24 -19.73769 -40.67005 16873 ft 359 kts 130°
2026-05-06 20:24 -19.75399 -40.65008 16551 ft 357 kts 130°
2026-05-06 20:24 -19.77017 -40.63027 16232 ft 354 kts 130°
2026-05-06 20:25 -19.78638 -40.61039 15913 ft 354 kts 130°
2026-05-06 20:25 -19.80225 -40.59094 15837 ft 342 kts 130°
2026-05-06 20:25 -19.81740 -40.57236 15766 ft 332 kts 130°
2026-05-06 20:25 -19.83274 -40.55354 15543 ft 342 kts 130°
2026-05-06 20:26 -19.84845 -40.53428 15233 ft 347 kts 130°
2026-05-06 20:26 -19.86435 -40.51476 14866 ft 349 kts 130°
2026-05-06 20:26 -19.88020 -40.49530 14491 ft 348 kts 130°
2026-05-06 20:26 -19.89601 -40.47590 14107 ft 347 kts 129°
2026-05-06 20:27 -19.91174 -40.45656 13667 ft 346 kts 130°
2026-05-06 20:27 -19.92741 -40.43730 13236 ft 344 kts 129°
2026-05-06 20:27 -19.94308 -40.41805 12849 ft 341 kts 129°
2026-05-06 20:27 -19.95839 -40.39923 12451 ft 339 kts 129°
2026-05-06 20:28 -19.97374 -40.38033 12067 ft 337 kts 129°
2026-05-06 20:28 -19.98898 -40.36156 11683 ft 335 kts 129°
2026-05-06 20:28 -20.00417 -40.34288 11299 ft 332 kts 129°
2026-05-06 20:28 -20.01924 -40.32432 10976 ft 329 kts 129°
2026-05-06 20:29 -20.03551 -40.30810 10758 ft 314 kts 147°
2026-05-06 20:29 -20.05521 -40.29989 10606 ft 298 kts 169°
2026-05-06 20:29 -20.07526 -40.30012 10485 ft 282 kts 191°
2026-05-06 20:29 -20.09313 -40.30714 10356 ft 269 kts 206°
2026-05-06 20:30 -20.10981 -40.31663 10274 ft 279 kts 208°
2026-05-06 20:30 -20.14424 -40.33780 9706 ft 288 kts 210°
2026-05-06 20:30 -20.16138 -40.34877 9364 ft 287 kts 210°
2026-05-06 20:31 -20.17842 -40.35982 9067 ft 286 kts 210°
2026-05-06 20:31 -20.19535 -40.37087 8738 ft 285 kts 211°
2026-05-06 20:31 -20.21224 -40.38195 8419 ft 286 kts 210°
2026-05-06 20:31 -20.22911 -40.39306 8125 ft 285 kts 211°
2026-05-06 20:32 -20.24597 -40.40416 7823 ft 284 kts 210°
2026-05-06 20:32 -20.26273 -40.41520 7519 ft 282 kts 210°
2026-05-06 20:32 -20.28094 -40.42241 7054 ft 283 kts 182°
2026-05-06 20:32 -20.30046 -40.41990 6534 ft 285 kts 160°
2026-05-06 20:33 -20.31874 -40.41208 5979 ft 282 kts 157°
2026-05-06 20:33 -20.33667 -40.40458 5772 ft 267 kts 157°
2026-05-06 20:33 -20.35302 -40.39773 5763 ft 246 kts 156°
2026-05-06 20:33 -20.36826 -40.39136 5744 ft 225 kts 156°
2026-05-06 20:34 -20.38237 -40.38549 5625 ft 212 kts 156°
2026-05-06 20:34 -20.39580 -40.37992 5501 ft 203 kts 156°
2026-05-06 20:34 -20.40875 -40.37457 5366 ft 196 kts 156°
2026-05-06 20:34 -20.42162 -40.36927 5262 ft 201 kts 157°
2026-05-06 20:35 -20.43389 -40.36229 5101 ft 199 kts 134°
2026-05-06 20:35 -20.44063 -40.35009 4899 ft 189 kts 103°
2026-05-06 20:35 -20.44111 -40.33639 4626 ft 184 kts 84°
2026-05-06 20:35 -20.43984 -40.32285 4338 ft 183 kts 84°
2026-05-06 20:36 -20.43840 -40.30943 4052 ft 182 kts 83°
2026-05-06 20:36 -20.43687 -40.29617 3803 ft 178 kts 83°
2026-05-06 20:36 -20.43534 -40.28335 3630 ft 173 kts 83°
2026-05-06 20:36 -20.43317 -40.27076 3466 ft 173 kts 67°
2026-05-06 20:37 -20.42550 -40.26111 3194 ft 174 kts 32°
2026-05-06 20:37 -20.41389 -40.25785 2937 ft 176 kts 360°
2026-05-06 20:37 -20.40175 -40.25914 2768 ft 173 kts 354°
2026-05-06 20:37 -20.39001 -40.26063 2550 ft 167 kts 354°
2026-05-06 20:38 -20.37873 -40.26214 2329 ft 165 kts 353°
2026-05-06 20:38 -20.36736 -40.26372 2150 ft 166 kts 354°
2026-05-06 20:38 -20.35595 -40.26529 1987 ft 162 kts 354°
2026-05-06 20:38 -20.34505 -40.26680 1817 ft 154 kts 354°
2026-05-06 20:39 -20.33460 -40.26831 1580 ft 150 kts 354°
2026-05-06 20:39 -20.32424 -40.26976 1308 ft 150 kts 354°
2026-05-06 20:39 -20.31384 -40.27128 1127 ft 152 kts 353°
2026-05-06 20:39 -20.30313 -40.27299 914 ft 156 kts 351°
2026-05-06 20:40 -20.29239 -40.27489 668 ft 156 kts 352°
2026-05-06 20:40 -20.28165 -40.27641 421 ft 155 kts 355°
2026-05-06 20:40 -20.27111 -40.27779 177 ft 154 kts 354°
2026-05-06 20:40 -20.26078 -40.27925 33 ft 140 kts 354°
2026-05-06 20:41 -20.25370 -40.28030 27 ft 51 kts 349°
2026-05-06 20:41 -20.25259 -40.28123 24 ft 18 kts 224°
2026-05-06 20:41 -20.25361 -40.28197 26 ft 18 kts 187°
2026-05-06 20:41 -20.25455 -40.28191 26 ft 13 kts 172°
2026-05-06 20:42 -20.25547 -40.28177 30 ft 14 kts 172°
2026-05-06 20:42 -20.25649 -40.28165 27 ft 16 kts 175°
2026-05-06 20:42 -20.25764 -40.28150 28 ft 17 kts 172°
2026-05-06 20:42 -20.25887 -40.28131 30 ft 19 kts 172°
2026-05-06 20:43 -20.26023 -40.28110 31 ft 21 kts 172°
2026-05-06 20:43 -20.26170 -40.28088 32 ft 22 kts 173°
2026-05-06 20:43 -20.26320 -40.28066 34 ft 22 kts 172°
2026-05-06 20:43 -20.26413 -40.28050 34 ft 6 kts 173°
2026-05-06 20:44 -20.26466 -40.28048 35 ft 8 kts 191°
2026-05-06 20:44 -20.26492 -40.28096 35 ft 9 kts 262°
2026-05-06 20:44 -20.26501 -40.28163 35 ft 6 kts 261°
2026-05-06 20:44 -20.26502 -40.28170 35 ft 0 kts 262°